PBO Station Position Time Series. Reference Frame : NAM14
Format Version,1.1.1
4-character ID,P347
Station name,AdinCTYardCN2007
Begin Date, 2007-09-14
End Date, 2023-06-26
Release Date, 2023-06-27
Reference position, 41.1833432785 North Latitude, -120.9484624332 East Longitude, 1268.82432 meters elevation,
Date, North (mm), East (mm), Vertical (mm), North Std. Deviation (mm), East Std. Deviation (mm),              Vertical Std. Deviation (mm), Quality,
2007-09-14,0.00, 0.00, 0.00, 2.21, 1.70, 7.63, repro,
2007-09-15,-1.93, 1.63, 6.08, 2.24, 1.67, 7.67, repro,
2007-09-16,-1.13, 0.21, 3.94, 2.18, 1.65, 7.41, repro,
2007-09-17,-1.57, -0.12, 5.49, 2.27, 1.74, 7.80, repro,
2007-09-18,-0.17, 0.03, -1.77, 2.11, 1.65, 7.32, repro,
2007-09-19,-0.54, 0.07, 2.90, 2.06, 1.57, 7.06, repro,
2007-09-20,-0.87, 1.61, 2.56, 2.11, 1.60, 7.19, repro,
2007-09-21,-0.93, 1.84, 4.69, 2.15, 1.61, 7.32, repro,
2007-09-22,-1.49, 1.42, 9.10, 2.13, 1.58, 7.21, repro,
2007-09-23,-0.29, 1.18, 3.28, 2.15, 1.62, 7.28, repro,
2007-09-24,-1.77, 1.69, 1.54, 2.20, 1.64, 7.43, repro,
2007-09-25,-1.78, 0.77, -2.62, 2.14, 1.60, 7.28, repro,
2007-09-26,-0.89, 1.04, 6.21, 2.18, 1.59, 7.29, repro,
2007-09-27,-2.79, 1.09, 2.97, 2.15, 1.60, 7.29, repro,
2007-09-28,-0.54, -0.36, 8.05, 2.13, 1.67, 7.40, repro,
2007-09-29,-1.74, -0.15, 0.46, 2.16, 1.68, 7.44, repro,
2007-09-30,-0.69, 0.21, 3.12, 2.14, 1.66, 7.37, repro,
2007-10-01,-0.75, 0.36, 5.81, 2.13, 1.65, 7.32, repro,
2007-10-02,-0.95, 2.01, 6.92, 2.28, 1.74, 7.71, repro,
2007-10-03,-2.17, 0.92, 11.30, 2.15, 1.64, 7.38, repro,
2007-10-04,-2.45, 1.79, 13.84, 2.15, 1.65, 7.46, repro,
2007-10-05,-1.47, 0.67, 2.46, 2.19, 1.73, 7.70, repro,
2007-10-06,-0.26, 1.34, 12.10, 2.14, 1.65, 7.32, repro,
2007-10-07,-0.92, 1.27, 1.02, 2.19, 1.68, 7.47, repro,
2007-10-08,-1.55, 2.32, 5.54, 2.39, 1.77, 8.17, repro,
2007-10-09,-0.75, 1.02, 9.10, 2.31, 1.83, 8.06, repro,
2007-10-10,-0.96, 1.09, 0.26, 2.33, 1.73, 7.95, repro,
2007-10-11,-0.95, 2.02, -4.51, 2.13, 1.66, 7.31, repro,
2007-10-12,-1.28, 1.86, 6.65, 2.14, 1.66, 7.35, repro,
2007-10-13,-1.21, 1.35, 6.78, 2.08, 1.60, 7.19, repro,
2007-10-14,-0.98, 1.15, 6.27, 2.07, 1.60, 7.16, repro,
2007-10-15,-2.26, 1.38, -0.19, 2.15, 1.67, 7.39, repro,
2007-10-16,-1.85, 1.37, 2.09, 2.10, 1.62, 7.27, repro,
2007-10-17,-2.46, 2.34, -1.37, 2.07, 1.60, 7.16, repro,
2007-10-18,-0.65, 0.83, 4.89, 2.13, 1.66, 7.34, repro,
2007-10-19,-0.52, 1.37, 11.38, 2.08, 1.61, 7.22, repro,
2007-10-20,-0.13, 2.00, 5.84, 2.09, 1.60, 7.20, repro,
2007-10-21,-1.04, 1.51, -1.55, 2.08, 1.60, 7.17, repro,
2007-10-22,-3.12, 1.45, -1.38, 2.09, 1.60, 7.20, repro,
2007-10-23,-0.18, 2.50, -5.08, 2.14, 1.66, 7.36, repro,
2007-10-24,-0.68, 1.45, -3.88, 2.18, 1.71, 7.56, repro,
2007-10-25,-2.36, 1.76, 1.81, 2.08, 1.60, 7.20, repro,
2007-10-26,-1.52, 1.40, -5.28, 2.12, 1.65, 7.33, repro,
2007-10-27,-1.66, 1.29, -4.24, 2.09, 1.61, 7.21, repro,
2007-10-28,-1.45, 2.19, -2.76, 2.08, 1.61, 7.17, repro,
2007-10-29,0.19, 1.16, -0.39, 2.10, 1.62, 7.27, repro,
2007-10-30,-1.98, 2.19, -4.87, 2.13, 1.69, 7.44, repro,
2007-10-31,-1.99, 0.82, -4.42, 2.09, 1.61, 7.23, repro,
2007-11-01,-1.73, 1.45, -5.79, 2.05, 1.57, 7.04, repro,
2007-11-02,-1.44, 1.17, 1.71, 2.06, 1.57, 7.03, repro,
2007-11-03,-1.25, 2.21, -2.37, 2.04, 1.57, 6.98, repro,
2007-11-04,-1.25, 1.98, 0.37, 2.05, 1.58, 7.04, repro,
2007-11-05,-1.29, 1.50, -2.06, 2.04, 1.58, 7.06, repro,
2007-11-06,-2.22, 1.14, -6.64, 2.12, 1.66, 7.39, repro,
2007-11-07,-0.84, 1.16, -5.10, 2.06, 1.57, 7.02, repro,
2007-11-08,-1.48, 1.75, 0.19, 2.07, 1.60, 7.05, repro,
2007-11-09,-2.01, 0.58, 1.64, 2.10, 1.62, 7.16, repro,
2007-11-10,-1.52, 1.09, -0.70, 2.04, 1.57, 7.03, repro,
2007-11-11,-1.43, 0.78, -3.69, 2.05, 1.57, 7.03, repro,
2007-11-12,-0.55, 1.56, -2.04, 2.05, 1.57, 7.04, repro,
2007-11-13,-0.85, 1.23, 4.67, 2.04, 1.56, 7.01, repro,
2007-11-14,-1.05, 1.17, -5.85, 2.07, 1.59, 7.08, repro,
2007-11-15,-1.12, 1.47, -3.69, 2.08, 1.59, 7.15, repro,
2007-11-16,-0.76, -0.08, -4.51, 2.04, 1.56, 6.98, repro,
2007-11-17,-0.70, -0.06, -7.33, 2.05, 1.56, 7.00, repro,
2007-11-18,-0.52, -0.51, -0.98, 2.05, 1.57, 7.06, repro,
2007-11-19,0.60, -1.13, -3.02, 2.04, 1.57, 7.00, repro,
2007-11-20,-1.66, -0.19, -2.07, 2.07, 1.62, 7.16, repro,
2007-11-21,-0.89, 0.61, -3.52, 2.12, 1.68, 7.37, repro,
2007-11-22,-0.60, 0.78, -11.63, 2.10, 1.63, 7.18, repro,
2007-11-23,-0.21, 0.25, -5.00, 2.15, 1.71, 7.43, repro,
2007-11-24,0.04, 0.33, -2.31, 2.13, 1.66, 7.31, repro,
2007-11-25,-0.83, 1.02, -0.82, 2.15, 1.72, 7.40, repro,
2007-11-26,-0.79, 1.27, -7.60, 2.15, 1.70, 7.44, repro,
2007-11-27,-0.87, 0.59, -6.11, 2.14, 1.68, 7.36, repro,
2007-11-28,-1.18, 1.30, -10.52, 2.12, 1.67, 7.27, repro,
2007-11-29,-1.00, -0.10, -3.53, 2.15, 1.65, 7.41, repro,
2007-11-30,-0.46, 1.49, -1.23, 2.16, 1.71, 7.43, repro,
2007-12-01,-1.58, 0.87, 0.88, 2.20, 1.77, 7.77, repro,
2007-12-02,-1.48, 1.87, 0.43, 2.27, 1.80, 8.02, repro,
2007-12-03,-0.63, 1.32, -7.76, 2.26, 1.75, 7.96, repro,
2007-12-04,-0.53, 2.23, -12.35, 2.26, 1.83, 7.98, repro,
2007-12-05,0.47, 2.55, -4.93, 2.32, 1.89, 8.39, repro,
2007-12-06,0.42, 1.24, 1.17, 2.43, 2.04, 8.76, repro,
2007-12-07,0.40, 2.87, -0.96, 2.32, 1.92, 8.22, repro,
2007-12-08,-1.87, 2.16, 3.82, 2.16, 1.70, 7.51, repro,
2007-12-09,0.94, 1.44, -5.01, 2.45, 2.12, 8.90, repro,
2007-12-10,0.93, 1.31, -5.42, 2.15, 1.72, 7.45, repro,
2007-12-11,-0.34, 1.67, -3.23, 2.20, 1.72, 7.59, repro,
2007-12-12,0.61, 0.30, -12.42, 2.25, 1.74, 7.80, repro,
2007-12-13,-0.65, 1.57, -11.37, 2.17, 1.69, 7.41, repro,
2007-12-14,-0.12, 2.06, -3.93, 2.10, 1.60, 7.21, repro,
2007-12-15,-1.40, 1.96, 0.09, 2.13, 1.61, 7.28, repro,
2007-12-16,-0.11, 0.94, -5.61, 2.11, 1.60, 7.22, repro,
2007-12-17,0.12, 1.32, 0.28, 2.16, 1.66, 7.36, repro,
2007-12-18,-0.03, -0.36, 1.69, 2.10, 1.61, 7.24, repro,
2007-12-19,-0.19, 2.26, -4.52, 2.11, 1.63, 7.29, repro,
2007-12-20,-0.94, 1.42, 1.41, 2.12, 1.62, 7.30, repro,
2007-12-21,-0.43, 0.20, -7.70, 2.18, 1.66, 7.45, repro,
2007-12-22,0.99, -1.23, -9.00, 2.21, 1.71, 7.71, repro,
2007-12-23,-0.61, 2.71, -6.41, 2.15, 1.68, 7.46, repro,
2007-12-24,1.14, 2.19, -2.38, 2.12, 1.63, 7.31, repro,
2007-12-25,-0.61, 2.57, -0.79, 2.11, 1.62, 7.27, repro,
2007-12-26,-1.82, 1.20, -1.30, 2.13, 1.62, 7.28, repro,
2007-12-27,0.32, 1.47, 1.37, 2.14, 1.62, 7.33, repro,
2007-12-28,-1.86, 0.61, -9.98, 2.17, 1.66, 7.45, repro,
2007-12-29,-2.76, 1.39, -2.06, 2.14, 1.62, 7.34, repro,
2007-12-30,-1.76, 1.29, -1.72, 2.16, 1.66, 7.46, repro,
2007-12-31,0.14, 1.56, -5.42, 2.12, 1.59, 7.22, repro,
2008-01-01,0.58, 1.71, -11.51, 2.11, 1.57, 7.11, repro,
2008-01-02,0.35, 1.50, -7.06, 2.11, 1.57, 7.12, repro,
2008-01-03,-1.32, 0.47, 1.04, 2.12, 1.58, 7.25, repro,
2008-01-04,0.09, 1.73, 3.48, 2.11, 1.59, 7.23, repro,
2008-01-05,-0.97, 0.83, 9.66, 2.08, 1.55, 7.05, repro,
2008-01-06,-0.52, -0.23, 1.57, 2.08, 1.55, 7.05, repro,
2008-01-07,-1.20, 0.89, -2.47, 2.08, 1.55, 7.09, repro,
2008-01-08,-2.11, 1.40, 0.67, 2.21, 1.60, 7.36, repro,
2008-01-09,-0.95, 1.40, -3.74, 2.12, 1.56, 7.16, repro,
2008-01-10,1.85, -0.17, -2.15, 2.05, 1.56, 7.03, repro,
2008-01-11,-0.98, 1.72, -6.52, 2.07, 1.56, 7.05, repro,
2008-01-12,0.50, 1.26, -8.48, 2.07, 1.56, 7.04, repro,
2008-01-13,-1.32, 1.74, -15.39, 2.09, 1.56, 7.11, repro,
2008-01-14,-1.22, 1.92, -7.27, 2.07, 1.57, 7.09, repro,
2008-01-15,-1.86, 0.56, -6.16, 2.04, 1.55, 6.95, repro,
2008-01-16,-1.82, 1.15, -9.03, 2.09, 1.57, 7.13, repro,
2008-01-17,-1.14, 2.10, -7.83, 2.11, 1.58, 7.14, repro,
2008-01-18,-0.77, 1.37, -7.65, 2.09, 1.61, 7.26, repro,
2008-01-19,-0.62, 1.59, -10.20, 2.07, 1.57, 7.07, repro,
2008-01-20,-1.32, 1.85, -9.63, 2.05, 1.55, 7.00, repro,
2008-01-21,-1.63, 1.34, -2.02, 2.04, 1.56, 6.97, repro,
2008-01-22,-2.00, 1.65, -7.65, 2.06, 1.56, 7.01, repro,
2008-01-23,-1.51, 1.44, -9.04, 2.07, 1.57, 7.07, repro,
2008-01-24,-0.89, 1.93, -3.51, 2.07, 1.57, 7.07, repro,
2008-01-25,-1.48, 0.81, 0.79, 2.04, 1.55, 6.95, repro,
2008-01-26,0.28, 2.68, 1.73, 2.04, 1.55, 6.96, repro,
2008-01-27,-1.68, 1.62, 7.29, 2.04, 1.56, 6.97, repro,
2008-01-28,-2.34, 1.48, 3.18, 2.06, 1.55, 7.01, repro,
2008-01-29,-0.12, 1.05, 1.23, 2.17, 1.68, 7.43, repro,
2008-01-30,-0.76, 1.32, -7.14, 2.15, 1.62, 7.28, repro,
2008-01-31,-0.93, 1.94, -13.17, 2.05, 1.56, 7.02, repro,
2008-02-01,-2.37, 1.90, -6.34, 2.05, 1.56, 7.01, repro,
2008-02-02,-1.43, 2.69, -7.37, 2.05, 1.56, 7.03, repro,
2008-02-03,-0.26, 1.80, -7.16, 2.07, 1.56, 7.03, repro,
2008-02-04,-1.22, 1.34, -4.51, 2.05, 1.55, 6.99, repro,
2008-02-05,-1.15, 2.03, -10.24, 2.10, 1.63, 7.24, repro,
2008-02-06,-1.07, 0.60, -8.17, 2.08, 1.62, 7.15, repro,
2008-02-07,-1.44, 1.20, -5.43, 2.07, 1.59, 7.12, repro,
2008-02-08,-1.88, 1.07, -7.73, 2.05, 1.55, 7.01, repro,
2008-02-09,-1.27, 2.22, -9.97, 2.05, 1.57, 7.03, repro,
2008-02-10,-1.23, 2.23, -8.72, 2.05, 1.55, 7.02, repro,
2008-02-11,-1.24, 1.83, -6.37, 2.05, 1.55, 6.98, repro,
2008-02-12,-1.70, 3.18, -4.03, 2.05, 1.56, 7.00, repro,
2008-02-13,-1.99, 1.25, 2.96, 2.04, 1.56, 7.00, repro,
2008-02-14,-1.63, 0.23, -3.26, 2.05, 1.55, 6.98, repro,
2008-02-15,-0.47, 1.62, -7.18, 2.08, 1.61, 7.15, repro,
2008-02-16,-1.30, 1.83, -6.53, 2.05, 1.55, 7.00, repro,
2008-02-17,-2.01, 2.03, -6.31, 2.04, 1.56, 6.97, repro,
2008-02-18,-2.79, 2.20, -3.69, 2.05, 1.57, 7.02, repro,
2008-02-19,-2.51, 2.26, -3.37, 2.05, 1.56, 7.01, repro,
2008-02-20,-1.00, 1.20, -8.80, 2.06, 1.58, 7.09, repro,
2008-02-21,-1.75, 1.85, -1.66, 2.05, 1.56, 6.98, repro,
2008-02-22,-1.92, 1.56, -2.53, 2.05, 1.57, 7.02, repro,
2008-02-23,-1.47, 1.97, -4.79, 2.09, 1.60, 7.17, repro,
2008-02-24,-1.58, 1.97, 0.49, 2.03, 1.56, 6.94, repro,
2008-02-25,-2.16, 2.20, -7.36, 2.07, 1.57, 7.10, repro,
2008-02-26,-2.47, 1.50, -14.15, 2.08, 1.58, 7.13, repro,
2008-02-27,-2.33, 1.56, -13.38, 2.10, 1.60, 7.22, repro,
2008-02-28,-1.56, 0.87, -9.76, 2.10, 1.60, 7.18, repro,
2008-02-29,-2.84, 2.68, -3.43, 2.05, 1.56, 7.02, repro,
2008-03-01,-1.91, 1.65, -8.29, 2.05, 1.57, 7.07, repro,
2008-03-02,-3.33, 2.44, -11.13, 2.11, 1.62, 7.26, repro,
2008-03-03,-1.92, 1.46, -9.18, 2.05, 1.56, 7.03, repro,
2008-03-04,-2.37, 1.73, -9.01, 2.06, 1.56, 7.03, repro,
2008-03-05,-1.69, 2.24, -6.29, 2.12, 1.66, 7.37, repro,
2008-03-06,-1.50, 1.75, -8.28, 2.05, 1.56, 7.03, repro,
2008-03-07,-1.05, 1.68, -12.45, 2.07, 1.57, 7.06, repro,
2008-03-08,-3.12, 1.82, -12.24, 2.09, 1.61, 7.29, repro,
2008-03-09,-2.52, 1.46, -11.93, 2.09, 1.60, 7.28, repro,
2008-03-10,-2.25, 1.57, -8.56, 2.06, 1.56, 7.04, repro,
2008-03-11,-1.37, 2.33, -7.69, 2.06, 1.57, 7.09, repro,
2008-03-12,-1.81, 0.51, -4.99, 2.08, 1.60, 7.24, repro,
2008-03-13,-3.05, 0.70, -3.11, 2.09, 1.61, 7.25, repro,
2008-03-14,-2.89, 1.53, -7.13, 2.07, 1.58, 7.14, repro,
2008-03-15,-1.65, 1.19, -7.94, 2.05, 1.57, 7.04, repro,
2008-03-16,-2.58, 1.10, 0.10, 2.11, 1.61, 7.27, repro,
2008-03-17,-0.82, 1.62, -4.87, 2.19, 1.73, 7.80, repro,
2008-03-18,-0.54, 0.87, -9.83, 2.12, 1.64, 7.39, repro,
2008-03-19,-0.58, 1.29, -9.34, 2.10, 1.60, 7.25, repro,
2008-03-20,-0.66, 2.30, -10.10, 2.08, 1.61, 7.26, repro,
2008-03-21,-0.37, 1.23, -10.93, 2.10, 1.60, 7.27, repro,
2008-03-22,-1.02, 1.65, -9.61, 2.09, 1.60, 7.22, repro,
2008-03-23,-1.73, 0.73, -10.00, 2.10, 1.60, 7.24, repro,
2008-03-24,-0.17, -0.70, -12.81, 2.11, 1.60, 7.25, repro,
2008-03-25,-4.09, -1.68, -14.45, 2.13, 1.65, 7.37, repro,
2008-03-26,-1.46, 3.58, -0.62, 2.13, 1.64, 7.39, repro,
2008-03-27,-0.09, 2.29, -8.39, 2.12, 1.64, 7.36, repro,
2008-03-28,0.47, 1.23, -2.80, 2.10, 1.61, 7.21, repro,
2008-03-29,-1.81, 1.37, -2.37, 2.10, 1.57, 7.19, repro,
2008-03-30,-1.10, 0.61, -6.44, 2.10, 1.58, 7.20, repro,
2008-03-31,-0.60, 2.00, -3.60, 2.09, 1.58, 7.18, repro,
2008-04-01,-0.99, 1.64, -5.38, 2.09, 1.57, 7.17, repro,
2008-04-02,-0.80, 2.21, -6.83, 2.13, 1.57, 7.25, repro,
2008-04-03,-0.87, 1.11, -8.92, 2.10, 1.57, 7.18, repro,
2008-04-04,-1.87, 0.91, -6.51, 2.09, 1.57, 7.18, repro,
2008-04-05,-1.72, 1.48, -0.25, 2.09, 1.58, 7.23, repro,
2008-04-06,-0.86, 1.16, -14.82, 2.08, 1.56, 7.12, repro,
2008-04-07,-1.18, 1.09, -5.10, 2.07, 1.56, 7.12, repro,
2008-04-08,-1.82, 0.94, -3.59, 2.09, 1.56, 7.16, repro,
2008-04-09,-1.64, 0.94, -4.00, 2.09, 1.57, 7.20, repro,
2008-04-10,-2.69, 0.92, -1.24, 2.08, 1.56, 7.16, repro,
2008-04-11,-2.14, 1.37, -7.52, 2.08, 1.57, 7.19, repro,
2008-04-12,-1.01, 1.48, -7.31, 2.07, 1.57, 7.15, repro,
2008-04-13,-0.61, 2.21, -9.75, 2.08, 1.56, 7.16, repro,
2008-04-14,-0.01, 0.33, -3.67, 2.10, 1.57, 7.21, repro,
2008-04-15,-0.46, 0.74, -1.16, 2.13, 1.62, 7.31, repro,
2008-04-16,-1.56, 0.62, -3.14, 2.13, 1.62, 7.32, repro,
2008-04-17,-1.74, 0.60, -3.43, 2.09, 1.57, 7.20, repro,
2008-04-18,0.22, 1.68, -8.40, 2.09, 1.57, 7.20, repro,
2008-04-19,-0.42, -0.66, -5.38, 2.09, 1.56, 7.16, repro,
2008-04-20,-2.39, 0.74, -1.87, 2.10, 1.57, 7.26, repro,
2008-04-21,-2.26, 0.41, -5.89, 2.09, 1.56, 7.19, repro,
2008-04-22,-1.67, 0.28, -3.35, 2.08, 1.56, 7.17, repro,
2008-04-23,-2.34, 0.69, -6.20, 2.17, 1.64, 7.53, repro,
2008-04-24,-1.18, 1.22, -7.28, 2.12, 1.59, 7.31, repro,
2008-04-25,-1.46, 1.10, -6.52, 2.10, 1.56, 7.22, repro,
2008-04-26,-1.86, 0.83, -12.97, 2.21, 1.64, 7.53, repro,
2008-04-27,-0.82, 0.96, -12.79, 2.18, 1.59, 7.36, repro,
2008-04-28,-1.38, 2.26, -9.24, 2.19, 1.60, 7.40, repro,
2008-04-29,-0.44, -0.20, 0.00, 2.26, 1.63, 7.61, repro,
2008-04-30,-0.90, 1.05, -6.19, 2.15, 1.60, 7.32, repro,
2008-05-01,-0.20, 1.01, -4.48, 2.14, 1.59, 7.31, repro,
2008-05-02,-1.11, 0.92, -4.46, 2.18, 1.63, 7.44, repro,
2008-05-03,-1.02, 0.89, -0.31, 2.16, 1.60, 7.37, repro,
2008-05-04,-0.82, 0.74, -4.47, 2.12, 1.59, 7.32, repro,
2008-05-05,-3.45, 1.04, -6.42, 2.16, 1.61, 7.37, repro,
2008-05-06,-1.85, -0.04, -11.03, 2.18, 1.65, 7.55, repro,
2008-05-07,-0.07, -0.36, -2.14, 2.13, 1.58, 7.31, repro,
2008-05-08,-0.77, 0.65, 0.30, 2.29, 1.68, 7.79, repro,
2008-05-09,-2.30, -0.04, -3.94, 2.15, 1.59, 7.36, repro,
2008-05-10,-1.17, 0.69, -4.93, 2.16, 1.61, 7.40, repro,
2008-05-11,-1.49, -0.16, 3.40, 2.14, 1.60, 7.38, repro,
2008-05-12,-1.93, 1.06, -0.13, 2.15, 1.59, 7.30, repro,
2008-05-13,-1.19, 0.80, -1.17, 2.18, 1.62, 7.44, repro,
2008-05-14,-2.91, 1.18, -4.82, 2.16, 1.59, 7.30, repro,
2008-05-15,-1.39, 0.34, -4.63, 2.12, 1.56, 7.18, repro,
2008-05-16,-1.94, 0.81, -0.60, 2.11, 1.57, 7.21, repro,
2008-05-17,-1.11, 0.37, -4.33, 2.14, 1.58, 7.27, repro,
2008-05-18,-0.22, -0.02, -5.89, 2.16, 1.58, 7.25, repro,
2008-05-19,-2.16, 0.30, -4.77, 2.11, 1.56, 7.24, repro,
2008-05-20,-2.00, -0.67, -5.48, 2.11, 1.58, 7.31, repro,
2008-05-21,-2.84, 0.61, 8.88, 2.12, 1.57, 7.26, repro,
2008-05-22,-3.62, -0.43, 14.60, 2.11, 1.59, 7.31, repro,
2008-05-23,-1.42, -0.70, 3.36, 2.11, 1.58, 7.32, repro,
2008-05-24,-3.42, -0.80, -4.98, 2.11, 1.55, 7.21, repro,
2008-05-25,-2.80, -0.03, -2.04, 2.10, 1.56, 7.24, repro,
2008-05-26,-2.30, -0.37, -2.86, 2.12, 1.59, 7.33, repro,
2008-05-27,-2.44, 1.01, -2.93, 2.09, 1.56, 7.16, repro,
2008-05-28,-2.13, 0.03, -2.72, 2.09, 1.55, 7.16, repro,
2008-05-29,-1.42, 0.06, -4.94, 2.15, 1.59, 7.33, repro,
2008-05-30,-1.41, 0.85, -3.57, 2.09, 1.55, 7.15, repro,
2008-05-31,-2.48, 1.73, -1.46, 2.14, 1.61, 7.38, repro,
2008-06-01,-1.41, 0.42, -3.45, 2.10, 1.57, 7.23, repro,
2008-06-02,-2.04, 0.34, -7.02, 2.09, 1.55, 7.17, repro,
2008-06-03,-0.76, 1.06, -5.81, 2.16, 1.62, 7.45, repro,
2008-06-04,-2.04, 1.23, -2.04, 2.10, 1.56, 7.22, repro,
2008-06-05,-1.74, 0.22, -1.60, 2.10, 1.56, 7.24, repro,
2008-06-06,-1.09, -0.17, -5.22, 2.12, 1.59, 7.31, repro,
2008-06-07,-1.52, 0.31, 2.57, 2.16, 1.63, 7.44, repro,
2008-06-08,-1.63, 0.86, -7.42, 2.15, 1.60, 7.35, repro,
2008-06-09,-1.28, 2.26, -6.87, 2.14, 1.59, 7.34, repro,
2008-06-10,-0.43, 2.16, -13.85, 2.11, 1.56, 7.28, repro,
2008-06-11,-0.50, 0.65, -3.94, 2.11, 1.56, 7.27, repro,
2008-06-12,-0.44, 1.72, 1.52, 2.12, 1.58, 7.32, repro,
2008-06-13,-1.50, 1.51, -5.86, 2.10, 1.56, 7.21, repro,
2008-06-14,-0.99, 1.39, -5.24, 2.16, 1.58, 7.35, repro,
2008-06-15,-0.10, 2.03, -8.78, 2.17, 1.60, 7.43, repro,
2008-06-16,0.03, 0.59, -6.07, 2.10, 1.56, 7.22, repro,
2008-06-17,-1.67, 0.68, -4.25, 2.14, 1.58, 7.35, repro,
2008-06-18,-0.67, 1.07, -4.64, 2.09, 1.57, 7.19, repro,
2008-06-19,0.27, 1.04, -6.82, 2.12, 1.60, 7.32, repro,
2008-06-20,0.84, 0.98, -8.40, 2.10, 1.56, 7.22, repro,
2008-06-21,2.82, 1.34, -16.62, 2.15, 1.60, 7.49, repro,
2008-06-22,-1.52, 2.30, -7.48, 2.10, 1.56, 7.18, repro,
2008-06-23,0.15, 1.88, -1.05, 2.09, 1.56, 7.17, repro,
2008-06-24,0.31, 2.41, -7.58, 2.10, 1.55, 7.17, repro,
2008-06-25,0.17, 2.47, -1.73, 2.10, 1.54, 7.16, repro,
2008-06-26,1.05, 1.53, -2.16, 2.14, 1.61, 7.37, repro,
2008-06-27,0.26, 0.35, -0.37, 2.10, 1.55, 7.18, repro,
2008-06-28,0.64, 1.69, -0.16, 2.13, 1.62, 7.36, repro,
2008-06-29,0.06, 1.57, -3.87, 2.15, 1.63, 7.45, repro,
2008-06-30,-0.42, 0.70, -8.26, 2.15, 1.59, 7.40, repro,
2008-07-01,-1.16, 0.67, -2.20, 2.10, 1.55, 7.18, repro,
2008-07-02,-0.70, 0.05, -4.06, 2.11, 1.55, 7.19, repro,
2008-07-03,0.29, -0.30, 0.31, 2.08, 1.54, 7.10, repro,
2008-07-04,0.75, 2.77, -2.86, 2.10, 1.56, 7.24, repro,
2008-07-05,-1.10, 0.12, 1.32, 2.11, 1.56, 7.26, repro,
2008-07-06,-1.34, 0.83, 10.34, 2.10, 1.55, 7.22, repro,
2008-07-07,-0.52, 2.31, -1.00, 2.11, 1.56, 7.21, repro,
2008-07-08,-0.66, 1.08, 0.60, 2.09, 1.54, 7.10, repro,
2008-07-09,0.08, 1.99, -0.64, 2.14, 1.61, 7.35, repro,
2008-07-10,-0.97, 0.71, 2.38, 2.24, 1.69, 7.82, repro,
2008-07-11,-0.94, 1.26, 6.85, 2.16, 1.60, 7.32, repro,
2008-07-12,-1.12, 2.06, 0.52, 2.12, 1.56, 7.25, repro,
2008-07-13,-0.28, 0.59, 0.63, 2.17, 1.61, 7.43, repro,
2008-07-14,-1.53, 1.14, 2.73, 2.22, 1.62, 7.52, repro,
2008-07-15,-0.60, 0.52, 12.25, 2.14, 1.58, 7.32, repro,
2008-07-16,-2.44, 1.87, -1.63, 2.12, 1.57, 7.29, repro,
2008-07-17,-0.66, 0.97, 6.60, 2.10, 1.56, 7.19, repro,
2008-07-18,-1.18, 1.12, -0.44, 2.23, 1.61, 7.59, repro,
2008-07-19,-2.05, 0.64, 0.21, 2.16, 1.56, 7.34, repro,
2008-07-20,-1.35, 1.28, -1.42, 2.09, 1.56, 7.16, repro,
2008-07-21,0.39, -0.15, 7.85, 2.25, 1.64, 7.65, repro,
2008-07-22,-1.39, 1.19, 5.31, 2.11, 1.56, 7.18, repro,
2008-07-23,-1.91, 1.71, 4.62, 2.15, 1.56, 7.31, repro,
2008-07-24,-0.85, 1.04, 2.22, 2.11, 1.55, 7.16, repro,
2008-07-25,-0.89, 0.93, 1.16, 2.14, 1.61, 7.32, repro,
2008-07-26,-1.15, 1.36, 1.22, 2.09, 1.55, 7.15, repro,
2008-07-27,0.62, -0.68, 5.55, 2.10, 1.56, 7.19, repro,
2008-07-28,-0.12, 0.73, 12.92, 2.19, 1.58, 7.35, repro,
2008-07-29,-1.20, 2.15, 7.74, 2.15, 1.56, 7.36, repro,
2008-07-30,-0.70, 1.48, 10.80, 2.16, 1.56, 7.39, repro,
2008-07-31,-1.74, 2.04, 6.73, 2.08, 1.54, 7.13, repro,
2008-08-01,-2.00, 0.73, 10.48, 2.11, 1.56, 7.21, repro,
2008-08-02,-1.11, 1.51, 11.16, 2.10, 1.55, 7.18, repro,
2008-08-03,-0.25, 1.17, 7.59, 2.14, 1.58, 7.31, repro,
2008-08-04,-0.31, 2.10, 1.29, 2.08, 1.55, 7.12, repro,
2008-08-05,-0.36, 1.26, 7.80, 2.08, 1.55, 7.13, repro,
2008-08-06,-0.76, 0.59, 0.87, 2.15, 1.56, 7.26, repro,
2008-08-07,-3.05, 2.79, 9.33, 2.22, 1.64, 7.55, repro,
2008-08-08,-1.83, 1.29, 19.91, 2.22, 1.62, 7.51, repro,
2008-08-09,-1.45, 1.40, 2.66, 2.13, 1.55, 7.22, repro,
2008-08-10,-0.61, 1.50, 4.85, 2.13, 1.56, 7.26, repro,
2008-08-11,-0.35, 1.45, 0.39, 2.12, 1.55, 7.18, repro,
2008-08-12,-0.43, 1.79, 6.07, 2.15, 1.57, 7.27, repro,
2008-08-13,-1.28, 1.78, 5.90, 2.18, 1.58, 7.42, repro,
2008-08-14,-0.39, 0.11, 8.42, 2.18, 1.58, 7.44, repro,
2008-08-15,-0.98, 1.31, 0.82, 2.14, 1.56, 7.29, repro,
2008-08-16,-0.04, 0.94, 8.58, 2.13, 1.56, 7.25, repro,
2008-08-17,-0.57, 0.98, 11.54, 2.16, 1.56, 7.29, repro,
2008-08-18,-0.35, 2.24, 16.36, 2.25, 1.66, 7.67, repro,
2008-08-19,0.48, 2.19, 3.69, 2.18, 1.57, 7.38, repro,
2008-08-20,-1.88, -0.70, 6.85, 2.21, 1.58, 7.39, repro,
2008-08-21,-0.77, -0.26, -0.97, 2.13, 1.56, 7.23, repro,
2008-08-22,0.12, 0.41, 5.73, 2.12, 1.55, 7.19, repro,
2008-08-23,0.58, 0.83, 4.64, 2.15, 1.55, 7.22, repro,
2008-08-24,-2.22, 0.61, 7.01, 2.19, 1.61, 7.50, repro,
2008-08-25,-1.91, 0.85, 6.76, 2.21, 1.62, 7.54, repro,
2008-08-26,-0.37, 0.34, 8.11, 2.13, 1.57, 7.23, repro,
2008-08-27,-0.19, 0.55, 10.78, 2.16, 1.59, 7.39, repro,
2008-08-28,-0.75, 0.32, 10.00, 2.29, 1.66, 7.64, repro,
2008-08-29,-0.35, 0.54, 3.57, 2.21, 1.61, 7.48, repro,
2008-08-30,-0.39, 1.11, 15.91, 2.19, 1.60, 7.43, repro,
2008-08-31,-0.58, 0.32, 5.83, 2.17, 1.59, 7.35, repro,
2008-09-01,-0.51, 1.74, -1.92, 2.14, 1.57, 7.26, repro,
2008-09-02,-0.53, 0.78, 4.00, 2.17, 1.59, 7.38, repro,
2008-09-03,1.26, 1.45, 6.51, 2.20, 1.60, 7.43, repro,
2008-09-04,0.70, -0.06, 8.26, 2.30, 1.71, 7.94, repro,
2008-09-05,0.01, 1.29, 1.08, 2.24, 1.62, 7.52, repro,
2008-09-06,-0.63, 0.88, 4.78, 2.15, 1.57, 7.29, repro,
2008-09-07,-1.04, 1.94, 1.75, 2.15, 1.59, 7.37, repro,
2008-09-08,0.16, 1.04, 9.76, 2.18, 1.59, 7.42, repro,
2008-09-09,-0.59, 0.71, 9.26, 2.22, 1.60, 7.47, repro,
2008-09-10,0.41, 2.17, 3.96, 2.19, 1.62, 7.45, repro,
2008-09-11,-0.19, 0.90, 1.65, 2.20, 1.61, 7.46, repro,
2008-09-12,-0.28, 0.90, 6.21, 2.24, 1.66, 7.66, repro,
2008-09-13,0.56, 1.42, 8.62, 2.22, 1.62, 7.53, repro,
2008-09-14,0.77, 1.26, 8.17, 2.22, 1.63, 7.57, repro,
2008-09-15,-0.15, 1.52, 3.91, 2.18, 1.59, 7.38, repro,
2008-09-16,-0.68, 1.28, 1.84, 2.15, 1.60, 7.35, repro,
2008-09-17,-1.23, 2.46, -6.68, 2.25, 1.62, 7.57, repro,
2008-09-18,-0.96, 1.67, 4.23, 2.16, 1.56, 7.28, repro,
2008-09-19,0.22, 1.52, 10.17, 2.17, 1.56, 7.31, repro,
2008-09-20,0.48, 0.95, 8.54, 2.16, 1.58, 7.35, repro,
2008-09-21,-2.49, 1.24, 12.68, 2.14, 1.56, 7.22, repro,
2008-09-22,-0.18, 1.73, 4.29, 2.16, 1.58, 7.40, repro,
2008-09-23,0.36, 0.80, 5.88, 2.16, 1.56, 7.26, repro,
2008-09-24,-1.02, 1.88, 7.27, 2.25, 1.65, 7.62, repro,
2008-09-25,-0.17, 2.58, 7.19, 2.15, 1.57, 7.28, repro,
2008-09-26,0.10, 1.46, 7.77, 2.15, 1.57, 7.30, repro,
2008-09-27,0.98, 1.10, 3.68, 2.17, 1.59, 7.35, repro,
2008-09-28,-0.82, 2.28, 3.78, 2.15, 1.55, 7.24, repro,
2008-09-29,-0.00, 2.36, 7.27, 2.20, 1.60, 7.36, repro,
2008-09-30,0.75, 0.46, 9.85, 2.14, 1.55, 7.21, repro,
2008-10-01,0.99, 2.40, 6.73, 2.14, 1.57, 7.24, repro,
2008-10-02,0.72, 3.01, 0.07, 2.19, 1.61, 7.47, repro,
2008-10-03,-0.38, 1.37, 10.26, 2.19, 1.60, 7.44, repro,
2008-10-04,-1.19, -0.55, 9.68, 2.17, 1.56, 7.29, repro,
2008-10-05,-0.34, 2.35, 8.53, 2.14, 1.55, 7.18, repro,
2008-10-06,-0.19, 0.96, 2.78, 2.15, 1.56, 7.24, repro,
2008-10-07,-0.32, 2.55, 4.90, 2.17, 1.57, 7.31, repro,
2008-10-08,0.69, 1.87, -0.22, 2.16, 1.58, 7.33, repro,
2008-10-09,0.63, 1.26, 4.27, 2.12, 1.54, 7.17, repro,
2008-10-10,-3.78, 3.89, 0.63, 2.11, 1.53, 7.11, repro,
2008-10-11,-2.27, 1.02, 9.78, 2.10, 1.54, 7.11, repro,
2008-10-12,-2.60, 0.63, 4.76, 2.10, 1.55, 7.15, repro,
2008-10-13,-0.92, 1.97, 2.07, 2.09, 1.54, 7.12, repro,
2008-10-14,-0.54, 2.50, -1.53, 2.11, 1.54, 7.18, repro,
2008-10-15,-0.68, 2.75, 0.16, 2.17, 1.56, 7.28, repro,
2008-10-16,-0.59, 2.35, -1.98, 2.22, 1.63, 7.54, repro,
2008-10-17,-0.07, 1.77, -7.30, 2.10, 1.55, 7.19, repro,
2008-10-18,0.39, 2.28, -0.14, 2.09, 1.54, 7.11, repro,
2008-10-19,-0.47, 1.76, 2.28, 2.10, 1.54, 7.15, repro,
2008-10-20,-0.68, 2.07, 6.45, 2.08, 1.54, 7.08, repro,
2008-10-21,-0.81, 2.86, -1.76, 2.09, 1.53, 7.09, repro,
2008-10-22,-0.73, 2.56, -3.95, 2.10, 1.54, 7.12, repro,
2008-10-23,-0.19, 1.89, 2.42, 2.09, 1.55, 7.14, repro,
2008-10-24,-0.27, 1.91, 4.96, 2.10, 1.54, 7.12, repro,
2008-10-25,0.04, 1.94, 5.87, 2.11, 1.55, 7.16, repro,
2008-10-26,-0.99, 1.73, 0.27, 2.09, 1.54, 7.08, repro,
2008-10-27,-0.45, 2.53, -4.37, 2.11, 1.54, 7.14, repro,
2008-10-28,0.24, 2.31, -8.94, 2.19, 1.57, 7.27, repro,
2008-10-29,-0.69, 1.52, -1.48, 2.19, 1.57, 7.26, repro,
2008-10-30,1.12, 2.17, 3.99, 2.10, 1.54, 7.13, repro,
2008-10-31,-0.38, -0.28, 3.15, 2.19, 1.58, 7.34, repro,
2008-11-01,-0.33, 1.76, 8.64, 2.15, 1.58, 7.28, repro,
2008-11-02,-1.84, 0.55, 4.80, 2.15, 1.61, 7.42, repro,
2008-11-03,-0.07, 1.27, 8.45, 2.12, 1.57, 7.21, repro,
2008-11-04,-1.28, 0.61, 9.68, 2.11, 1.55, 7.16, repro,
2008-11-05,-0.33, 1.52, 4.61, 2.12, 1.57, 7.26, repro,
2008-11-06,-0.76, 0.32, -13.33, 2.14, 1.60, 7.34, repro,
2008-11-07,-1.42, 2.17, -4.22, 2.14, 1.61, 7.37, repro,
2008-11-08,-0.91, 1.97, -3.18, 2.16, 1.62, 7.44, repro,
2008-11-09,-0.11, 0.05, 5.56, 2.14, 1.60, 7.32, repro,